Regional Weather Roundup
Issued by NWS

Home | Current Version | Previous Version | Text Only | Print | Product List | Glossary Off
Versions: 1 2 3 4 5 6 7 8 9 10 11 12 13 14 15 16 17 18 19 20 21 22 23 24 25 26 27 28 29 30 31 32 33 34 35 36 37 38 39 40 41 42 43 44 45 46 47 48 49 50

000
ASUS43 KDMX 200301
RWRIA

WEATHER ROUNDUP FOR IOWA
NATIONAL WEATHER SERVICE DES MOINES IA
900 PM CST FRI JAN 19 2018

NOTE: "FAIR" INDICATES FEW OR NO CLOUDS BELOW 12,000 FEET WITH NO
SIGNIFICANT WEATHER AND/OR OBSTRUCTIONS TO VISIBILITY.

* - THESE STATIONS ARE NOT NWS STATIONS...THUS NOT UNDER NWS
QUALITY CONTROL.  THEY ALSO DO NOT REPORT WEATHER SUCH
AS PRECIPITATION OR FOG.

IAZ001>003-012>014-020>022-031>034-043>046-200400-
   NORTHWEST IOWA

CITY           SKY/WX    TMP DP  RH WIND       PRES   REMARKS
CARROLL *      CLOUDY    39  30  70 SW18      29.70R WCI  30
CHEROKEE *     CLOUDY    36  32  86 CALM      29.71R
DENISON *      PTCLDY    37  28  70 SW6       29.73R WCI  33
LE MARS *      CLOUDY    36  30  80 CALM      29.72R
ORANGE CITY *  CLOUDY    32  30  93 CALM      29.72R
SHELDON *      CLOUDY    34  32  93 NW6       29.69S WCI  29
SIOUX CITY     CLOUDY    33  29  85 NW3       29.73R
SPENCER        CLOUDY    36  31  82 W8        29.70R WCI  30
STORM LAKE *   CLOUDY    34  28  80 W7        29.70R WCI  28
$$

IAZ055>058-069>071-079>083-090>094-200400-
   SOUTHWEST IOWA

CITY           SKY/WX    TMP DP  RH WIND       PRES   REMARKS
ATLANTIC *     CLOUDY    34  32  93 SW9       29.75R WCI  26
AUDUBON *      CLOUDY    37  30  75 S9        29.74R WCI  31
CLARINDA *     CLOUDY    36  30  80 S6          N/A  WCI  31
COUNCIL BLFS * CLOUDY    39  30  70 SW12      29.75R WCI  32
CRESTON *      CLOUDY    37  28  70 SW12      29.77R WCI  30
HARLAN  *      CLOUDY    37  30  75 S8        29.76S WCI  31
LAMONI         CLOUDY    39  27  62 SW14      29.77R WCI  31
RED OAK *      CLOUDY    34  28  80 S5        29.77R WCI  30
SHENANDOAH *   CLOUDY    34  30  86 CALM      29.78R
$$

IAZ047>049-059>061-072>074-084-200400-
   CENTRAL IOWA

CITY           SKY/WX    TMP DP  RH WIND       PRES   REMARKS
AMES           CLOUDY    37  31  78 SW12      29.72R WCI  29
ANKENY *       CLOUDY    43  28  56 SW12      29.75R
BOONE *        CLOUDY    37  30  75 MISG      29.71R
CHARITON *     CLOUDY    37  28  70 SW10      29.75S WCI  30
DES MOINES     MOCLDY    41  28  60 SW14      29.75R
GRINNELL*      CLOUDY    37  29  72 SW13      29.74R WCI  29
KNOXVILLE *    CLOUDY    39  27  60 SW9       29.75R WCI  33
MARSHALLTOWN   CLOUDY    38  29  70 SW13      29.71R WCI  30
NEWTON *       CLOUDY    39  28  65 SW13      29.75R WCI  32
PELLA *        CLOUDY    39  28  63 SW7       29.77R WCI  34
PERRY *          N/A     36  28  75 SW7       29.72S WCI  30
$$

IAZ004>006-015-016-023>025-035-036-200400-
   NORTH CENTRAL IOWA

CITY           SKY/WX    TMP DP  RH WIND       PRES   REMARKS
ALGONA *       PTCLDY    34 N/A N/A SW7       29.68R WCI  28
CLARION *      CLOUDY    34  34 100 SW9       29.69R WCI  26
ESTHERVILLE    CLOUDY    35  32  88 NW10      29.68R WCI  27
FORT DODGE *   MOCLDY    34  30  85 SW7       29.70R WCI  28
MASON CITY     CLOUDY    36  30  79 W9        29.68R WCI  29
FOREST CITY *    N/A     34  32  93 W5        29.67R WCI  30
WEBSTER CITY * CLOUDY    37  30  75 SW12      29.68R WCI  30
IOWA FALLS *     N/A     36  32  84 SW10      29.71R WCI  29
$$

IAZ007>011-017>019-026>030-037>042-050>054-066-200400-
   NORTHEAST IOWA

CITY           SKY/WX    TMP DP  RH WIND       PRES   REMARKS
CEDAR RAPIDS     N/A     39  28  64 SW9       29.73R WCI  33
CHARLES CITY * MOCLDY    37  34  87 SW9       29.67R WCI  31
CLINTON *        N/A     40  30  67 SW14      29.75R WCI  32
DECORAH *        N/A     37  30  75 SW7G14    29.64F WCI  32
DUBUQUE          N/A     36  27  69 SW10      29.70R WCI  28
MONTICELLO *     N/A     39  28  65 SW9       29.72R WCI  33
OELWEIN *        N/A     36  34  93 SW10      29.68S WCI  28
WATERLOO         N/A     39  29  67 SW14      29.69R WCI  31
$$

IAZ064-065-067-068-078-200400-
   EAST CENTRAL IOWA

CITY           SKY/WX    TMP DP  RH WIND       PRES   REMARKS
DAVENPORT        N/A     43  28  55 SW15G26   29.76R
IOWA CITY        N/A     41  28  60 SW6       29.78R
MT. PLEASANT * CLOUDY    37  28  70 SW16      29.78R WCI  28
MUSCATINE *      N/A     43  28  56 SW8G17    29.78R
QUAD CITIES      N/A     44  28  53 SW15G24   29.74R
$$

IAZ062-063-075>077-085>089-095>099-200400-
   SOUTHEAST IOWA

CITY           SKY/WX    TMP DP  RH WIND       PRES   REMARKS
BURLINGTON     CLOUDY    40  28  62 SW15      29.78R WCI  32
FAIRFIELD *    CLOUDY    41  28  60 SW15      29.76S
FORT MADISON * CLOUDY    43  28  56 SW16      29.79R
KEOKUK *       CLOUDY    43  28  56 SW12      29.80R
OSKALOOSA *      N/A     39  29  68 W12       29.77R WCI  32
OTTUMWA        CLOUDY    42  27  55 SW16G26   29.75R
WASHINGTON *   CLOUDY    41  30  65 SW15G22   29.77R
$$

ABBREVIATIONS USED IN REMARKS
   TC - TEMPERATURES IN CELSIUS
  WCI - WIND CHILL INDEX
   HX - HEAT INDEX
  VSB - VISIBILITY
$$





USA.gov is the U.S. government's official web portal to all federal, state and local government web resources and services.